Location: Eekst
(53.0191°N, 6.7366°E)
Time: 08:43:07
(UTC+00:00)

CZ-2C R/B - Pass Details

Date: 15 May 2026
Orbit: 630 x 690 km, 98.1° (Epoch: 6 June)

Event Time Altitude Azimuth Distance (km) Brightness Sun altitude
Rises 22:25:48 0° 17° (NNE) 2,960 8.0 -16.6°
Reaches altitude 10° 22:28:03 10° 22° (NNE) 2,053 7.0 -16.7°
Maximum altitude 22:32:27 55° 101° (E) 784 3.9 -16.9°
Enters shadow 22:34:17 32° 163° (SSE) 1,118 4.3 -17.0°
